Meteo Giornale » Osservazioni meteo Norvegia » Hammerfest
ore: 04:50 - Osservazioni Meteo Hammerfest
Lat. 70° 40' N Lon. 23° 40' E Alt. 8 metri s.l.m.
10 °C
Molto Nuvoloso
Temp. 24 Ore
10 °C
14 °C
Nord
3.7 Km/h
Dew point 9 °C
Umidità 93 %
Visibilità 10 Km
Il sole sorge alle ore 04:36
Il sole tramonta alle ore 20:13
| Data e Ora | Cielo e Fenomeni | T °C | DP °C | Um. % | Pres. hPa | Vis. km | Vento km/h | |
|---|---|---|---|---|---|---|---|---|
| Oggi h: 04:50 | Molto Nuvoloso | 10 | 9 | 93 | 1006 | 10 | N 3.7 | |
| Oggi h: 04:20 | Coperto | 10 | 9 | 93 | 1006 | 10 | SO 7.4 | |
| Oggi h: 03:50 | Coperto | 10 | 9 | 93 | 1006 | 10 | O/SO 7.4 | |
| Oggi h: 03:20 | Molto Nuvoloso | 10 | 10 | 100 | 1006 | 10 | N 1.8 | |
| Oggi h: 02:50 | Molto Nuvoloso | 10 | 10 | 100 | 1006 | 10 | N 3.7 | |
| Oggi h: 02:20 | Molto Nuvoloso | 10 | 10 | 100 | 1007 | 10 | N 1.8 | |
| Oggi h: 01:50 | Coperto | 11 | 10 | 93 | 1007 | 10 | N 3.7 | |
| Oggi h: 01:20 | Coperto | 11 | 10 | 93 | 1006 | 10 | N 3.7 | |
| Oggi h: 00:50 | Coperto | 11 | 10 | 93 | 1006 | 10 | SO 9.3 | |
| Oggi h: 00:20 | Pioviggine | 11 | 10 | 93 | 1006 | 10 | O/SO 11.1 | |
| Ieri h: 23:50 | Pioviggine | 11 | 10 | 93 | 1006 | 10 | O/SO 14.8 | |
| Ieri h: 23:20 | Pioviggine | 11 | 10 | 93 | 1006 | 10 | O/SO 18.5 | |
| Ieri h: 22:50 | Molto Nuvoloso | 11 | 10 | 93 | 1006 | 10 | O/SO 16.7 | |
| Ieri h: 22:20 | Molto Nuvoloso | 11 | 10 | 93 | 1006 | 10 | O/SO 13 | |
| Ieri h: 21:50 | Molto Nuvoloso | 11 | 10 | 93 | 1006 | 10 | O/SO 11.1 | |
| Ieri h: 21:20 | Molto Nuvoloso | 11 | 10 | 93 | 1006 | 10 | O/SO 20.3 | |
| Ieri h: 20:50 | Molto Nuvoloso | 11 | 11 | 100 | 1006 | 10 | SO 22.2 | |
| Ieri h: 20:20 | Nebbia nelle vicinanze | 11 | 11 | 100 | 1005 | 3 | O/SO 16.7 | |
| Ieri h: 19:50 | Nebbia nelle vicinanze | 11 | 11 | 100 | 1005 | 10 | O/SO 16.7 | |
| Ieri h: 19:20 | Nebbia | 11 | 11 | 100 | 1005 | 0.6 | O/SO 22.2 | |
| Ieri h: 18:50 | Nebbia nelle vicinanze | 11 | 11 | 100 | 1005 | 10 | O/SO 22.2 | |
| Ieri h: 18:20 | Nebbia | 11 | 11 | 100 | 1005 | 0.8 | O/SO 16.7 | |
| Ieri h: 17:50 | Nebbia nelle vicinanze | 11 | 11 | 100 | 1005 | 10 | O/SO 13 | |
| Ieri h: 17:20 | Nebbia nelle vicinanze | 12 | 11 | 93 | 1004 | 3 | SO 13 | |
| Ieri h: 16:50 | Molto Nuvoloso | 13 | 12 | 93 | 1004 | 10 | SO 7.4 | |
| Ieri h: 16:20 | Molto Nuvoloso | 13 | 12 | 93 | 1004 | 10 | N 5.5 | |
| Ieri h: 15:50 | Molto Nuvoloso | 13 | 12 | 93 | 1004 | 10 | N 5.5 | |
| Ieri h: 15:20 | Molto Nuvoloso | 13 | 12 | 93 | 1004 | 10 | O/NO 9.3 | |
| Ieri h: 14:50 | Molto Nuvoloso | 12 | 11 | 93 | 1004 | 10 | O/SO 7.4 | |
| Ieri h: 14:20 | Molto Nuvoloso | 12 | 11 | 93 | 1004 | 10 | O/SO 7.4 | |
| Ieri h: 13:50 | Molto Nuvoloso | 12 | 11 | 93 | 1003 | 10 | SO 13 | |
| Ieri h: 13:20 | Molto Nuvoloso | 12 | 11 | 93 | 1003 | 10 | O/SO 11.1 | |
| Ieri h: 12:50 | Molto Nuvoloso | 12 | 11 | 93 | 1003 | 10 | O/SO 13 | |
| Ieri h: 12:20 | Molto Nuvoloso | 12 | 11 | 93 | 1003 | 10 | SO 13 | |
| Ieri h: 11:50 | Molto Nuvoloso | 12 | 11 | 93 | 1002 | 10 | O/SO 9.3 | |
| Ieri h: 11:20 | Molto Nuvoloso | 12 | 11 | 93 | 1002 | 10 | O/SO 9.3 | |
| Ieri h: 10:50 | Molto Nuvoloso | 11 | 11 | 100 | 1002 | 10 | O/SO 9.3 | |
| Ieri h: 10:20 | Molto Nuvoloso | 11 | 11 | 100 | 1002 | 10 | SO 9.3 | |
| Ieri h: 09:50 | Molto Nuvoloso | 12 | 11 | 93 | 1002 | 10 | O 9.3 | |
| Ieri h: 09:20 | Molto Nuvoloso | 11 | 11 | 100 | 1001 | 10 | O/SO 14.8 | |
| Ieri h: 08:50 | Pioviggine Nebbia | 11 | 11 | 100 | 1001 | 0.25 | O/SO 20.3 | |
| Ieri h: 08:20 | Pioviggine Nebbia | 11 | 11 | 100 | 1001 | 0.6 | SO 13 | |
| Ieri h: 07:50 | Nebbia nelle vicinanze | 12 | 12 | 100 | 1001 | 10 | O 13 | |
| Ieri h: 07:20 | Pioviggine | 12 | 11 | 93 | 1001 | 10 | N 5.5 | |
| Ieri h: 06:50 | Nuvoloso | 14 | 12 | 87 | 1000 | 10 | N 0 | |
| Ieri h: 06:20 | Poco Nuvoloso | 14 | 12 | 87 | 1000 | 10 | N 3.7 | |
| Ieri h: 05:50 | Molto Nuvoloso | 13 | 12 | 93 | 1000 | 10 | N 5.5 | |



